EST,Max TemperatureF,Mean TemperatureF,Min TemperatureF,Max Dew PointF,MeanDew PointF,Min DewpointF,Max Humidity, Mean Humidity, Min Humidity, Max Sea Level PressureIn, Mean Sea Level PressureIn, Min Sea Level PressureIn, Max VisibilityMiles, Mean VisibilityMiles, Min VisibilityMiles, Max Wind SpeedMPH, Mean Wind SpeedMPH, Max Gust SpeedMPH,PrecipitationIn, CloudCover, Events, WindDirDegrees
2012-2-1,52,44,36,45,35,28,89,80,70,30.15,29.98,29.77,10,9,7,20,10,23,0.00,6,,284
2012-2-2,38,32,25,29,27,24,92,81,70,30.41,30.28,30.15,10,10,10,12,4,14,0.00,6,,327
2012-2-3,36,31,25,31,28,24,92,81,70,30.51,30.45,30.40,10,8,4,10,3,14,0.00,8,,319
2012-2-4,45,34,23,28,25,21,96,71,45,30.41,30.29,30.18,10,9,6,7,1,8,0.00,1,,331
2012-2-5,41,31,21,30,25,20,88,74,59,30.28,30.22,30.15,10,9,6,12,4,16,0.00,2,,272
2012-2-6,47,37,27,30,27,24,92,71,49,30.20,30.10,30.01,10,9,7,18,12,24,0.00,2,,253
2012-2-7,34,28,21,28,23,14,85,74,63,30.41,30.29,30.14,10,9,2,18,8,23,T,6,,14
2012-2-8,35,27,19,19,17,15,84,68,51,30.39,30.30,30.22,10,10,10,16,7,20,0.00,0,,272
2012-2-9,39,31,22,22,19,16,81,65,48,30.22,30.15,30.08,10,10,10,18,10,23,0.00,0,,232
2012-2-10,33,24,14,29,21,9,88,79,69,30.07,29.93,29.85,10,3,0,23,10,32,0.18,8,Fog-Snow,242
2012-2-11,20,14,8,11,5,-2,84,71,58,30.22,30.12,29.97,10,7,1,24,14,30,0.05,7,Snow,316
2012-2-12,29,23,16,15,12,8,73,63,53,30.19,30.14,30.11,10,10,6,22,15,26,T,5,Snow,269
2012-2-13,36,28,19,22,15,12,81,60,38,30.12,30.05,29.96,10,9,2,18,9,24,0.01,4,Snow,237
2012-2-14,32,29,25,28,25,17,85,74,63,30.03,29.90,29.84,10,6,2,12,6,15,0.03,8,Snow,207
2012-2-15,41,37,32,33,28,26,89,75,60,30.18,30.12,30.04,10,8,3,16,7,29,0.11,7,Rain,191
2012-2-16,42,37,31,38,34,26,92,81,70,30.06,29.98,29.91,10,5,2,22,9,26,0.28,7,Rain,219
2012-2-17,42,37,31,31,27,20,89,66,43,30.13,30.06,29.94,10,8,2,18,9,25,0.02,6,Snow,247
2012-2-18,38,31,24,30,23,15,92,73,54,30.26,30.05,29.89,10,9,3,25,11,31,T,7,Snow,303
2012-2-19,32,26,19,18,16,14,84,71,58,30.26,30.22,30.16,10,10,10,14,6,18,0.00,3,,23
2012-2-20,40,28,16,22,19,14,92,70,48,30.29,30.22,30.14,10,10,9,12,5,15,0.00,0,,159
2012-2-21,40,34,27,36,29,19,89,73,56,30.10,29.72,29.58,10,8,0,22,11,30,0.12,6,Snow,192
2012-2-22,42,36,29,31,28,25,85,68,51,29.65,29.51,29.42,10,10,10,18,10,23,0.00,3,,228
2012-2-23,41,36,31,31,29,25,92,73,54,29.63,29.54,29.43,10,7,2,14,6,,0.01,6,Snow,263
2012-2-24,35,32,29,30,28,22,92,81,69,29.73,29.47,29.28,10,3,0,23,14,32,0.43,8,Fog-Snow,13
2012-2-25,33,30,26,22,19,14,81,63,45,30.34,30.00,29.74,10,9,4,24,15,31,T,7,Snow,289
2012-2-26,38,29,19,23,19,15,84,68,51,30.42,30.28,30.09,10,10,10,24,11,30,0.00,2,,183
2012-2-27,42,35,28,25,23,21,69,56,43,30.48,30.21,30.04,10,10,10,32,15,41,0.00,5,,251
2012-2-28,41,30,18,26,22,14,92,69,46,30.53,30.40,30.17,10,9,5,16,5,20,0.00,3,,159
2012-2-29,42,38,33,39,33,22,93,77,61,30.11,29.68,29.46,10,5,0,23,12,32,0.60,8,Fog-Rain,134